Wind_Speed
62 60 59 57 56 55 54 54 53 52 52 53 51 50 50 48 45 43 41 41 43 44 47 48 49 51 53 54 56 56 57 57 57 56 56 56 55 53 51 51 51 49 47
46 42 40 38 39 41 44 47 48 47 48 50 50 47 46 45 41 38 37 39 41 44 46 49 51 52 53 52 52 53 55 56 55 54 54 54 53 50 50 50 49 47 45
38 35 34 33 32 32 33 36 39 40 40 42 43 42 41 39 38 37 38 38 39 41 43 46 49 51 51 50 51 52 54 55 55 54 53 52 49 47 48 48 47 45 44
36 35 35 34 30 28 27 28 29 31 33 35 36 37 37 36 35 37 38 38 38 38 38 40 43 45 47 47 48 49 51 51 49 47 47 46 45 44 44 46 45 43 43
34 35 36 34 27 22 20 20 21 23 26 29 29 29 30 31 33 35 37 39 37 36 36 36 37 39 40 41 43 44 44 44 43 42 42 43 43 42 42 42 42 41 40
33 34 36 33 23 15 11 11 14 17 20 24 26 27 29 29 30 33 37 39 37 36 37 37 36 36 38 38 38 40 41 41 41 41 41 40 40 41 40 41 40 39 39
31 30 32 30 22 14 9 9 12 16 19 22 25 27 29 29 30 33 37 37 35 36 36 35 34 33 35 36 37 39 40 41 41 41 39 38 38 39 40 41 40 39 40
30 27 27 26 21 14 11 10 12 15 18 21 22 24 27 30 32 34 35 34 34 34 33 31 30 30 33 38 38 38 39 40 41 40 40 39 40 41 41 41 40 40 42
30 28 26 24 20 16 13 12 13 14 17 19 22 24 26 28 30 32 33 33 33 34 33 31 29 28 30 34 36 37 38 39 40 41 41 42 43 43 43 42 41 42 43
32 30 28 26 23 20 17 15 15 16 18 20 21 23 25 28 30 32 33 34 36 35 33 31 31 30 29 30 31 33 35 37 39 40 42 43 43 44 44 44 44 45 45
33 32 31 30 28 25 23 22 21 22 23 24 26 29 31 32 32 33 35 37 37 37 34 33 33 32 31 30 30 32 33 35 38 40 42 43 45 46 47 47 48 47 47
36 34 33 32 32 31 30 29 29 29 30 31 32 33 35 35 35 35 36 38 38 37 36 35 35 34 33 32 32 33 34 36 39 41 43 45 47 49 50 50 50 50 50
37 35 34 34 34 34 34 35 35 36 37 38 38 39 39 39 39 39 39 39 41 41 39 38 38 38 38 38 37 37 37 38 40 43 46 48 50 51 52 53 53 53 53
37 35 34 34 34 35 36 37 38 39 41 42 43 44 45 46 46 45 45 44 44 45 45 45 44 43 43 43 43 42 42 42 43 45 47 50 52 53 53 53 54 54 55
40 38 36 36 36 36 38 39 40 41 43 44 46 47 48 50 52 53 53 52 51 51 51 51 51 50 49 49 48 48 47 46 46 48 49 50 52 53 54 53 54 54 55
43 42 41 41 40 41 41 42 43 44 45 46 47 48 49 51 53 55 57 58 58 58 58 57 57 57 57 55 55 54 53 52 50 50 50 51 51 51 52 53 54 54 55
50 49 48 48 47 46 47 47 48 49 50 50 51 51 52 52 53 55 56 57 59 61 63 64 64 63 63 62 61 60 58 57 56 55 54 54 54 53 52 53 53 54 54
58 58 58 57 57 57 56 56 56 56 56 57 57 57 57 57 58 58 60 60 61 62 63 65 66 67 66 66 66 65 63 62 60 59 58 58 57 57 56 55 55 55 55
58 57 57 57 58 59 61 62 63 64 65 65 65 65 65 64 64 64 65 65 65 65 66 67 67 68 68 68 68 67 66 65 64 63 63 62 61 61 60 58 57 56 55
45 44 43 43 43 44 46 48 51 55 59 63 66 68 70 70 70 71 71 71 71 70 70 70 70 71 71 71 70 69 69 68 68 67 67 65 64 63 62 60 59 57 56
39 38 37 36 35 35 34 34 35 36 38 42 46 51 56 61 65 68 72 74 75 76 76 75 75 74 74 74 73 73 72 72 71 70 69 67 66 64 63 61 60 58 57
42 40 39 38 37 36 34 33 31 30 29 29 30 31 34 38 43 48 54 59 65 70 73 76 77 78 79 78 78 77 76 75 74 73 71 70 68 67 65 64 62 60 58
46 44 43 41 40 39 37 35 33 31 30 29 28 27 26 27 28 30 33 37 42 47 53 59 65 69 73 76 78 79 78 78 77 76 75 74 72 71 69 68 66 64 62
48 47 45 43 42 40 39 37 35 33 32 31 31 30 28 26 24 23 24 25 27 29 32 36 41 47 53 59 64 68 72 74 75 76 76 75 74 74 72 70 69 67 66
51 50 48 47 45 43 42 39 37 35 34 33 32 32 32 30 27 24 23 22 21 21 22 23 25 28 31 36 41 46 51 55 59 63 65 67 67 68 67 67 67 67 67
54 53 52 51 50 48 46 43 40 37 35 33 31 30 30 30 29 26 24 22 21 19 19 18 17 16 17 18 21 24 28 31 34 36 39 41 44 47 50 52 54 56 57
Wind_Direction
301 296 289 283 276 270 265 262 259 255 252 248 248 248 249 251 252 249 247 251 256 257 257 256 255 255 255 255 254 253 251 250 248 246 246 246 247 247 248 250 250 249 248
315 310 304 296 285 274 266 262 258 255 252 249 248 248 248 249 249 248 251 254 256 258 258 257 256 255 255 255 253 249 246 247 246 242 242 244 246 246 248 249 248 247 246
325 321 317 310 297 283 272 264 258 254 252 249 246 248 246 246 245 249 252 255 259 260 260 259 256 254 253 253 251 246 244 243 244 242 241 243 244 246 247 248 247 244 243
329 327 323 318 305 291 279 267 257 248 245 243 243 244 243 245 248 253 255 257 260 260 262 261 257 253 252 251 249 246 243 240 239 237 237 239 243 245 246 247 246 242 241
333 333 332 328 316 298 281 268 254 242 239 237 241 243 245 248 252 256 257 260 259 260 264 264 260 256 252 251 249 242 234 231 231 233 236 239 240 242 242 242 241 241 242
333 337 341 342 336 319 289 260 247 241 238 237 240 242 244 247 251 256 259 260 259 262 267 266 261 256 251 249 243 232 226 226 228 232 236 239 240 241 240 238 238 240 244
330 334 341 347 345 333 303 265 249 241 239 241 243 244 246 248 251 257 259 260 261 266 268 264 258 253 248 243 236 230 226 226 228 232 236 239 242 243 241 239 239 241 244
324 326 333 341 342 330 308 282 262 250 243 243 243 243 247 251 255 258 259 261 264 266 265 260 255 250 246 238 233 231 229 230 231 234 239 242 243 244 244 244 244 245 247
321 317 319 324 328 324 305 286 272 261 252 246 243 244 248 252 254 255 256 259 263 264 262 258 253 246 241 238 234 233 234 235 236 240 243 245 246 247 248 248 247 247 248
319 312 307 306 307 307 300 287 276 267 259 253 250 251 255 259 259 257 255 257 259 260 258 253 247 241 238 240 241 241 242 243 245 246 247 248 249 250 251 251 250 250 250
315 310 303 297 293 289 286 281 274 268 264 260 258 259 260 261 261 259 259 259 259 258 255 250 245 240 240 243 246 249 250 251 252 253 253 253 252 252 252 253 253 253 254
313 308 301 295 290 284 278 274 270 267 265 263 262 262 261 261 260 259 259 258 257 255 254 252 248 245 245 247 250 254 256 258 259 259 258 257 256 255 255 255 255 256 256
313 308 302 296 290 285 280 275 270 267 265 264 263 262 262 261 262 262 261 259 256 253 252 252 251 250 249 250 252 255 258 261 263 264 263 261 259 257 257 257 257 257 257
312 307 303 298 293 287 283 279 275 271 269 266 265 264 263 262 261 262 262 261 259 256 253 253 252 253 253 253 255 257 259 262 264 266 266 264 261 258 257 257 257 258 257
311 307 302 298 294 289 284 280 277 274 272 269 267 266 264 263 261 260 260 260 259 258 257 256 256 256 257 257 257 258 260 261 263 265 266 266 263 259 257 257 257 257 258
308 304 300 296 292 289 285 281 277 275 272 269 267 265 263 261 260 259 258 258 258 258 258 258 257 258 258 258 258 259 259 260 261 262 263 264 263 260 258 257 257 258 258
303 300 296 292 289 286 283 280 278 276 273 271 268 266 264 262 260 259 258 257 256 256 257 257 257 257 257 257 257 257 258 258 258 259 260 261 261 260 258 257 257 258 258
300 297 293 290 286 283 280 277 275 273 272 271 269 268 266 264 262 261 260 259 257 256 256 256 256 256 255 255 255 255 256 256 256 256 257 258 259 259 258 257 256 257 257
304 300 297 293 289 286 282 278 275 273 271 269 267 266 265 264 263 262 261 260 259 258 257 256 256 256 255 254 254 253 253 254 254 255 256 257 258 258 258 257 255 255 256
321 319 316 312 308 303 297 291 286 281 277 273 270 268 266 265 264 263 262 261 261 260 259 258 257 256 256 255 255 254 254 254 254 255 255 256 256 257 257 256 255 254 254
344 342 340 336 332 328 322 316 309 302 295 288 283 278 274 270 268 266 264 263 262 261 260 260 259 258 257 256 255 255 254 254 254 254 255 255 255 256 256 256 255 255 254
359 358 357 355 353 350 347 344 340 334 328 320 311 302 293 284 278 273 269 266 265 263 263 262 261 260 260 259 258 257 256 255 255 254 254 254 254 255 255 255 255 255 255
4 2 1 359 357 356 354 352 351 349 348 345 340 332 323 312 301 292 284 277 272 268 265 263 261 260 260 260 259 259 258 257 257 256 256 256 255 255 255 255 256 257 257
7 5 3 1 358 355 352 349 347 346 346 346 347 346 342 336 326 315 305 296 288 281 275 270 266 262 260 258 257 257 257 257 257 256 256 256 256 256 256 256 257 258 258
9 7 6 4 1 358 354 349 344 340 339 338 339 340 342 343 340 334 326 318 310 303 296 288 280 272 265 260 256 254 254 254 254 254 255 255 255 256 256 256 256 257 258
12 10 8 6 4 0 356 351 346 340 336 334 332 332 334 337 338 338 335 332 326 319 313 305 297 288 277 267 259 254 251 251 251 251 251 250 250 250 250 251 252 253 254
Height
5489 5481 5475 5472 5471 5472 5474 5477 5482 5489 5494 5499 5505 5511 5516 5522 5526 5530 5532 5535 5538 5541 5543 5546 5549 5551 5554 5556 5559 5562 5567 5571 5577 5582 5585 5588 5592 5598 5602 5605 5608 5612 5616
5474 5466 5459 5455 5454 5454 5456 5459 5465 5471 5477 5483 5490 5496 5503 5509 5514 5517 5520 5522 5525 5527 5529 5531 5534 5536 5538 5540 5543 5547 5551 5556 5561 5567 5571 5574 5579 5584 5589 5592 5595 5599 5603
5467 5460 5454 5449 5445 5443 5444 5446 5450 5456 5463 5469 5477 5484 5491 5497 5501 5504 5507 5509 5511 5513 5515 5517 5518 5520 5522 5524 5528 5531 5536 5541 5546 5553 5558 5562 5566 5571 5575 5578 5582 5586 5590
5464 5456 5450 5443 5438 5435 5435 5436 5439 5445 5451 5458 5466 5473 5479 5484 5488 5492 5494 5496 5498 5500 5502 5503 5504 5505 5507 5509 5512 5516 5522 5527 5533 5539 5545 5550 5555 5559 5563 5566 5570 5574 5578
5460 5453 5445 5437 5431 5428 5427 5429 5432 5437 5443 5449 5456 5462 5467 5472 5476 5479 5481 5484 5486 5488 5490 5491 5491 5492 5493 5496 5499 5503 5508 5514 5521 5527 5533 5539 5543 5547 5551 5555 5558 5562 5566
5458 5451 5443 5434 5428 5425 5424 5425 5429 5433 5437 5443 5448 5453 5458 5462 5466 5468 5470 5473 5474 5476 5477 5479 5480 5480 5482 5485 5488 5492 5498 5504 5510 5516 5521 5526 5531 5536 5540 5544 5548 5551 5555
5455 5449 5442 5435 5430 5426 5425 5426 5427 5430 5434 5438 5442 5445 5449 5453 5455 5457 5459 5461 5463 5464 5466 5466 5468 5470 5472 5475 5478 5482 5488 5494 5500 5505 5510 5514 5519 5525 5528 5532 5535 5538 5542
5452 5446 5441 5436 5432 5428 5426 5426 5426 5428 5430 5432 5435 5437 5440 5443 5445 5447 5449 5450 5452 5454 5455 5455 5457 5460 5462 5464 5468 5473 5479 5484 5489 5494 5499 5503 5507 5511 5515 5518 5521 5525 5529
5448 5443 5439 5435 5431 5428 5426 5424 5424 5424 5425 5426 5428 5430 5432 5434 5436 5437 5439 5441 5442 5444 5445 5446 5448 5450 5453 5456 5460 5465 5470 5474 5478 5482 5486 5490 5494 5498 5502 5506 5509 5512 5515
5443 5438 5434 5431 5428 5426 5423 5422 5420 5420 5420 5421 5422 5423 5424 5426 5427 5428 5430 5431 5432 5434 5436 5437 5439 5441 5444 5447 5452 5456 5459 5463 5466 5470 5473 5477 5481 5485 5489 5492 5495 5498 5501
5435 5431 5427 5424 5422 5419 5418 5416 5415 5415 5414 5414 5415 5415 5416 5417 5417 5418 5419 5420 5422 5423 5425 5427 5429 5431 5435 5438 5441 5444 5448 5451 5454 5457 5461 5464 5467 5471 5474 5477 5480 5483 5486
5426 5422 5418 5415 5413 5411 5409 5408 5407 5406 5406 5405 5405 5405 5406 5406 5406 5407 5408 5408 5410 5412 5414 5416 5418 5421 5423 5426 5429 5432 5435 5438 5441 5444 5447 5450 5453 5456 5459 5462 5465 5467 5470
5416 5411 5407 5404 5401 5400 5398 5397 5396 5395 5394 5393 5393 5393 5393 5393 5393 5394 5395 5396 5397 5399 5401 5403 5406 5408 5411 5413 5416 5418 5421 5423 5426 5429 5431 5434 5438 5441 5443 5446 5449 5451 5454
5406 5401 5396 5393 5389 5387 5385 5384 5382 5381 5380 5379 5379 5378 5378 5378 5379 5380 5380 5381 5383 5384 5386 5389 5392 5394 5396 5399 5401 5404 5406 5408 5411 5413 5415 5417 5420 5423 5427 5430 5433 5435 5438
5395 5390 5385 5381 5377 5374 5371 5369 5367 5366 5364 5363 5363 5362 5362 5362 5362 5363 5364 5366 5367 5368 5370 5372 5375 5377 5380 5382 5385 5388 5390 5392 5395 5397 5398 5401 5403 5406 5409 5412 5416 5419 5422
5383 5378 5373 5368 5364 5360 5356 5353 5350 5348 5346 5345 5344 5343 5343 5343 5343 5343 5344 5346 5348 5349 5351 5353 5356 5358 5361 5364 5367 5370 5373 5376 5378 5380 5382 5385 5387 5390 5392 5395 5399 5402 5405
5368 5362 5357 5352 5348 5344 5340 5336 5333 5330 5327 5325 5324 5323 5322 5322 5322 5322 5323 5325 5327 5329 5331 5333 5335 5338 5341 5344 5347 5351 5354 5357 5360 5363 5365 5368 5371 5374 5376 5379 5382 5385 5389
5349 5342 5336 5331 5326 5322 5318 5315 5312 5309 5307 5304 5302 5301 5300 5300 5300 5300 5301 5302 5305 5307 5308 5310 5313 5316 5319 5322 5326 5329 5333 5336 5340 5343 5346 5349 5353 5356 5359 5362 5365 5368 5372
5327 5320 5313 5307 5301 5296 5292 5289 5286 5283 5281 5279 5278 5276 5275 5275 5275 5276 5276 5278 5280 5283 5285 5287 5290 5292 5295 5299 5302 5306 5310 5314 5318 5322 5326 5329 5333 5337 5340 5344 5347 5350 5354
5312 5303 5295 5288 5281 5275 5270 5265 5261 5257 5254 5252 5251 5250 5249 5249 5249 5249 5250 5251 5253 5256 5259 5262 5265 5268 5271 5274 5279 5283 5287 5291 5295 5300 5304 5308 5312 5317 5321 5325 5329 5333 5337
5305 5296 5287 5279 5271 5264 5257 5251 5245 5239 5234 5230 5227 5224 5223 5223 5222 5222 5223 5224 5225 5227 5230 5234 5237 5241 5244 5248 5253 5258 5263 5267 5272 5277 5282 5286 5291 5296 5300 5305 5310 5314 5319
5303 5293 5284 5275 5267 5259 5251 5243 5236 5230 5224 5219 5213 5209 5205 5202 5199 5198 5197 5198 5199 5200 5202 5205 5209 5212 5216 5221 5226 5231 5236 5242 5247 5253 5258 5264 5269 5274 5279 5284 5289 5294 5300
5303 5292 5283 5274 5265 5256 5248 5240 5233 5226 5219 5213 5207 5201 5196 5191 5187 5183 5181 5179 5177 5177 5178 5179 5181 5184 5188 5192 5197 5202 5208 5214 5221 5227 5234 5239 5245 5251 5257 5263 5269 5274 5280
5304 5293 5283 5273 5263 5254 5245 5237 5229 5222 5215 5208 5202 5196 5189 5184 5179 5174 5170 5167 5165 5163 5161 5161 5161 5161 5163 5166 5170 5174 5179 5186 5193 5200 5207 5214 5221 5227 5234 5242 5248 5253 5259
5306 5294 5283 5272 5261 5251 5242 5233 5224 5216 5209 5202 5196 5190 5184 5178 5172 5167 5163 5159 5156 5153 5151 5149 5148 5147 5147 5148 5150 5153 5157 5162 5168 5174 5181 5189 5197 5204 5211 5219 5225 5232 5238
5307 5295 5282 5271 5259 5248 5237 5227 5218 5209 5202 5195 5189 5184 5178 5172 5167 5162 5157 5153 5149 5146 5143 5141 5139 5137 5136 5136 5138 5140 5143 5148 5152 5158 5164 5171 5177 5183 5190 5197 5204 5211 5218